SL-8 R/B

Satellite information

Favourite Embed

Satellite Type and Status

ROCKET BODYIN ORBIT

Key statistics

Satellite SL-8 R/B at a glance.

Uptime

20527

Days in orbit

Revolutions

≈ 14.7

Per day

Orbit

LEO

Low Earth Orbit

Inclination

74.1

Latest

Satellite identification and parameters

Extended collection of information and parameters for SL-8 R/B.

Object identification

Identified? True

Debris? False

Object name: SL-8 R/B

International designator: 1969-070B

Object number (NORAD): 4071

Object ID (CCSDS): 4071

Country: COMMONWEALTH OF INDEPENDENT STATES (CIS)

Current information (Y/N): Y

RCS size: LARGE

Orbital parameters

Period: 98.207 minutes

Inclination: 74.0504 deg

SMA: 7051.084 km

Apoapsis: 683.42 km

Periapsis: 662.478 km

RAAN: 30.3618 deg

Eccentricy: 0.00148502

Argument of periapsis: 300.8074 deg

Mean anomaly: 59.1633 deg

Mean motion: 14.662868 rev/day

Mean motion (dot): 0.00001169 rev/day2

B* drag term: 0.00021736071 1/REarth

Two-line elements (TLE)

Creation date: Oct. 25, 2025, 3:11 a.m.

Reference frame: TEME

Reference center: EARTH

Epoch: Oct. 24, 2025, 5:19 p.m. UTC

TLE line 0: 0 SL-8 R/B

TLE line 1: 1 04071U 69070B 25297.72161009 .00001169 00000-0 21736-3 0 9994

TLE line 2: 2 04071 74.0504 30.3618 0014850 300.8074 59.1633 14.66286800984217

Live tracking on map

Real-time ground track for satellite SL-8 R/B.

In-orbit conjunctions

A list of the most updated potential collisions computed for object SL-8 R/B.

Target Orbit TCA Probability of collision Miss distance Type
COSMOS 2251 DEB LEO 2025-04-16 22:12:41 0.0001198104 880.0 (m) DEBRIS
ORBVIEW 1 (MICROLAB) LEO 2024-12-14 10:16:03 0.001949906 575.0 (m) PAYLOAD
CZ-6A DEB SSO 2024-09-24 20:12:47 0.0001256645 356.0 (m) DEBRIS

Associated space launch

The first soviet navigation system called Tsiklon consisted of Zaliv satellites in low earth orbit.

SL-8 R/B was lifted into orbit during the mission ‘Kosmos-3M | Zaliv 3’, on board a Kosmos-3M space rocket.

The launch took place on Aug. 13, 1969, 10 p.m. from 132/2.

For more information about the launch, click the button.

Launch to space Kosmos-3M | Zaliv 3
Kosmos-3M | Zaliv 3

Agency: N/A

Status: Launch Successful

Launch date: Aug. 13, 1969, 10 p.m. UTC

Rocket: Kosmos-3M

Launch pad: 132/2

Location: Plesetsk Cosmodrome, Russian Federation

...

Latest news about this satellite

There are no fresh news available about this satellite. Check back as we update our databases every day.


Newsletter sign-up

Weekly statistics, charts and insights to help you stay on top of the space industry.